Regional Weather Roundup
Issued by NWS

Home | Current Version | Previous Version | Text Only | Print | Product List | Glossary On
Versions: 1 2 3 4 5 6 7 8 9 10 11 12 13 14 15 16 17 18 19 20 21 22 23 24 25 26 27
000
ASUS45 KBOI 211210
RWRID

IDAHO REGIONAL WEATHER ROUNDUP
NATIONAL WEATHER SERVICE BOISE ID
500 AM MST TUE FEB 21 2017

NOTE: "FAIR" INDICATES FEW OR NO CLOUDS BELOW 12000 FEET
WITH NO SIGNIFICANT WEATHER AND/OR OBSTRUCTIONS TO VISIBILITY

IDZ012-014-211300-
SOUTHWEST IDAHO


CITY           SKY/WX    TMP DP  RH WIND       PRES   REMARKS
BOISE          PTCLDY    47  38  71 SE13G28   29.83R
CALDWELL       PTCLDY    52  36  54 S6G18     29.80R
MOUNTAIN HOME  CLEAR     40  40 100 E10       29.85S WCI  34
$$

IDZ016-017-211300-
SOUTHCENTRAL IDAHO


CITY           SKY/WX    TMP DP  RH WIND       PRES   REMARKS
BURLEY         CLOUDY    49  36  61 SW15      29.89R
JEROME           N/A    N/A N/A N/A MISG      29.90R
TWIN FALLS     MOCLDY    47  34  60 S20G29    29.87R
$$

IDZ019>023-211300-
SOUTHEAST IDAHO


CITY           SKY/WX    TMP DP  RH WIND       PRES   REMARKS
IDAHO FALLS    MOCLDY    37  37 100 SW16      29.88F WCI  28
POCATELLO      CLOUDY    48  37  65 S23G30    29.90R
REXBURG        CLOUDY    39  38  96 S17G25    29.86F WCI  30
$$

IDZ006-010-011-018-031-032-211300-
CENTRAL IDAHO MOUNTAINS


CITY           SKY/WX    TMP DP  RH WIND       PRES   REMARKS
MCCALL         LGT RAIN  36  32  85 S16G24    29.70R WCI  26
HAILEY         LGT RAIN  34  34 100 CALM      29.90S
STANLEY          N/A     36  30  79 SE6       29.79R WCI  31
SALMON         CLOUDY    39  36  87 S10       29.71F WCI  32
CHALLIS        LGT RAIN  37  34  89 S9        29.76R WCI  30
$$

IDZ002-004-006-007-026-211300-
NORTHERN IDAHO


CITY           SKY/WX    TMP DP  RH WIND       PRES   REMARKS
LEWISTON       LGT RAIN  42  38  85 SE5       29.63F
LOWELL           N/A     35  33  92 NW3       29.70F
COEUR D`ALENE  CLOUDY    32  31  96 NE9       29.66F WCI  24
MULLAN PASS    LGT SNOW  26  26 100 S6        29.60F VSB 1   WCI  19
$$




USA.gov is the U.S. government's official web portal to all federal, state and local government web resources and services.